sat.trackr.live / text

‹ back to catalog

STARLINK-4809

NORAD 53857 · 2022-114AR

PAYLOAD ACTIVE UNKNOWN

§ Identity

Operator
Country
US
Launch date
2022-09-19
Launch site
AFETR
Launch vehicle
Mass (kg)
RCS (m²)

Purposes: comms

External: N2YO · Heavens-Above · Gunter

§ Orbital elements

Epoch: 2026-09-19T22:08:51.050112Z

Period
94.01 min
Inclination
53.1580°
Eccentricity
0.0000432
Mean motion
15.31732221 rev/d
Perigee alt
470.3 km
Apogee alt
470.9 km
Semi-major
6,848.8 km
B*
5.0927e-5
RAAN
126.8348°
Arg perigee
41.9040°
Mean anomaly
318.1994°
Rev number
22,250

§ Raw data

STARLINK-48091 53857U 22114AR  26262.92281308  .00001217  00000+0  50927-4 0  99962 53857  53.1580 126.8348 0000432  41.9040 318.1994 15.31732221222504

JSON: /api/v1/satellites/53857 · /tle

For live sub-satellite position, see the globe view (requires WebGL).

§ Visibility from observer

Set your observer location to see the next 7 days of passes ≥ 10°. The values pass through the URL so the page stays shareable.

No JS? Fill the form by hand. The geolocation button needs JavaScript.